Regional Weather Roundup
Issued by NWS

Home | Current Version | Previous Version | Text Only | Print | Product List | Glossary On
Versions: 1 2 3 4 5 6 7 8 9 10 11 12 13 14 15 16 17 18 19 20 21 22 23 24 25 26 27 28 29 30 31 32 33 34 35 36 37 38 39 40 41 42 43 44 45 46 47 48 49 50
000
ASUS43 KOAX 301502
RWRNE

WEATHER ROUNDUP FOR NEBRASKA
NATIONAL WEATHER SERVICE OMAHA NE
1000 AM CDT TUE AUG 30 2016

NOTES: SATELLITE DATA IS BEING USED TO AUGMENT CLOUD COVER ABOVE
       12000 FEET.
       "FAIR" INDICATES FEW OR NO CLOUDS BELOW 12,000 FEET WITH NO
       SIGNIFICANT WEATHER AND/OR OBSTRUCTIONS TO VISIBILITY.

  * THESE STATIONS DO NOT REPORT WEATHER SUCH AS RAIN...SNOW OR FOG.

NEZ001>004-019>022-054>056-301600-
NEBRASKA PANHANDLE

CITY           SKY/WX    TMP DP  RH WIND       PRES   REMARKS
SCOTTSBLUFF    SUNNY     66  57  72 W6        30.29S
ALLIANCE       SUNNY     68  60  75 CALM      30.29R
CHADRON        FOG       61  60  97 CALM      30.27S VSB 1/4
KIMBALL        SUNNY     71  59  65 SE6       30.33S
SIDNEY         SUNNY     68  58  70 SE5       30.31R
$$

NEZ057>060-069>072-079>082-301600-
SOUTHWEST NEBRASKA

CITY           SKY/WX    TMP DP  RH WIND       PRES   REMARKS
NORTH PLATTE   PTSUNNY   72  67  84 E3        30.26R
IMPERIAL       PTSUNNY   67  63  87 SE3       30.27S
LEXINGTON      CLOUDY    69  66  89 CALM      30.26R
MCCOOK         CLOUDY    67  66  97 E5        30.25R FOG
$$

NEZ005>010-023>029-035>040-094-301600-
NORTH CENTRAL NEBRASKA

CITY           SKY/WX    TMP DP  RH WIND       PRES   REMARKS
VALENTINE      SUNNY     73  61  65 CALM      30.23S
AINSWORTH      MOSUNNY   75  66  75 CALM      30.23F
BROKEN BOW     HVY RAIN  67  66  97 CALM      30.26R VSB 1
O`NEILL        MOSUNNY   73  67  81 S3        30.23S
ORD            PTSUNNY   70  66  87 SW5       30.22R
THEDFORD       CLOUDY    74  65  72 CALM      30.26S
$$

NEZ041-046>049-061>064-073>077-083>087-301600-
SOUTH CENTRAL NEBRASKA

CITY           SKY/WX    TMP DP  RH WIND       PRES   REMARKS
GRAND ISLAND   PTSUNNY   71  67  87 CALM      30.23S
AURORA         CLOUDY    69  69 100 SE3       30.22F
HASTINGS       MOSUNNY   72  66  81 CALM      30.24S
HEBRON         PTSUNNY   71  69  93 CALM      30.21F
HOLDREGE       CLOUDY    68  66  92 CALM      30.24F
KEARNEY *      CLOUDY    70  66  88 SW6       30.23S
YORK           LGT RAIN  70  68  94 CALM      30.23S
$$

NEZ011>018-030>034-042>045-301600-
NORTHEAST NEBRASKA

CITY           SKY/WX    TMP DP  RH WIND       PRES   REMARKS
NORFOLK        CLOUDY    71  67  87 E5        30.23R
ALBION         PTSUNNY   71  69  93 SE3       30.22S
BLAIR          CLOUDY    71  70  95 N7        30.22S
FREMONT        CLOUDY    71  69  93 CALM      30.23R
TEKAMAH        CLOUDY    71  67  87 CALM      30.22S
WAYNE          CLOUDY    70  68  94 SE5       30.23F
$$

NEZ050>053-065>068-078-088>093-301600-
SOUTHEAST NEBRASKA

CITY           SKY/WX    TMP DP  RH WIND       PRES   REMARKS
LINCOLN        CLOUDY    72  69  90 CALM      30.22S
OMAHA EPPLEY   CLOUDY    73  68  84 N5        30.21R
BEATRICE       PTSUNNY   72  69  91 N3        30.21S
FALLS CITY     CLOUDY    72  70  93 N7        30.19R
NEBRASKA CITY  CLOUDY    71  71 100 CALM      30.21R
PLATTSMOUTH    PTSUNNY   72  70  96 CALM      30.22R
$$

NEZ044-045-051>053-067-301600-
OMAHA AREA

CITY           SKY/WX    TMP DP  RH WIND       PRES   REMARKS
OMAHA EPPLEY   CLOUDY    73  68  84 N5        30.21R
BLAIR          CLOUDY    71  70  95 N7        30.22S
FREMONT        CLOUDY    71  69  93 CALM      30.23R
MILLARD        CLOUDY    73  69  88 CALM      30.21R
OFFUTT AFB     PTSUNNY   72  72 100 E7        30.21R
PLATTSMOUTH    PTSUNNY   72  70  96 CALM      30.22R
WAHOO          CLOUDY    71  69  93 CALM      30.22S FOG
$$




USA.gov is the U.S. government's official web portal to all federal, state and local government web resources and services.